[[{"header":{"parameterUnit":"m.s-1","parameterCategory":1,"la1":30.2991,"la2":30.254,"lo1":-89.0895,"lo2":-89.0444,"dy":0.0017,"dx":0.0017,"nx":28,"ny":28,"refTime":"2025-04-06T09:00:00:Z","depth":0,"parameterNumber":2,"parameterNumberName":"U-component_of_WINDS"},"data":[0,0,0,0,0,0,0,0,0,0,0,0,0,0,0,0,0,0,0,0,0,0,0,0,0,0,0,0,0,0,0,0,0,0,0,0,0,0,0,0,0,0,0,0,0,0,0,0,0,0,0,0,0,0,0,0,0,0,2.3778,2.3778,0,2.3718,2.3717,2.3716,2.3675,2.3675,2.3674,2.3674,2.3607,2.3606,2.3604,0,0,0,0,0,0,0,0,0,0,0,0,0,2.3853,2.3852,2.3778,2.3778,2.3777,2.3718,2.3717,2.3716,2.3675,2.3675,2.3674,2.3674,2.3608,2.3606,2.3604,0,0,0,0,0,0,0,0,0,0,0,0,0,2.3809,2.3851,2.3778,2.3749,2.3746,2.3718,2.3717,2.3716,2.3675,2.3675,2.3674,2.3674,2.3608,2.3606,2.3604,2.3599,0,0,2.3597,2.3596,0,0,0,0,0,0,0,0,2.3812,2.3806,2.3754,2.3751,2.3747,2.3704,2.3719,2.3676,2.3675,2.3702,2.3674,2.3673,2.3639,2.3634,2.3624,2.3595,2.3593,2.3597,2.3595,2.3594,2.3594,0,0,0,0,0,0,0,2.3815,2.3809,2.3754,2.3753,2.3749,2.3737,2.3731,2.3711,2.3673,2.3699,2.3696,2.369,2.3637,2.3626,2.3622,2.3592,2.3597,2.3595,2.3593,2.3592,2.3554,2.3555,0,0,0,0,0,0,2.3823,2.3812,2.3756,2.3752,2.3779,2.3736,2.3729,2.3718,2.3674,2.3667,2.369,2.3688,2.363,2.3625,2.3619,2.3609,2.3594,2.3592,2.3591,2.3554,2.3554,2.3555,0,0,0,0,0,0,2.3825,2.3819,2.3758,2.3781,2.3773,2.3736,2.3724,2.3717,2.3706,2.3667,2.366,2.3686,2.363,2.3623,2.3604,2.3606,2.3591,2.3589,2.3554,2.3554,2.3555,2.359,0,0,0,0,0,0,2.3827,2.3819,2.3818,2.3782,2.3772,2.3746,2.3724,2.3716,2.3703,2.3699,2.3661,2.3654,2.3629,2.3608,2.3602,2.3603,2.3587,2.3553,2.3554,2.3554,2.3588,2.3592,2.3595,0,0,0,0,0,2.383,2.383,2.3818,2.3812,2.377,2.3746,2.374,2.3712,2.3703,2.3701,2.3676,2.3655,2.3608,2.3606,2.3599,2.36,2.3553,2.3554,2.3554,2.3587,2.3591,2.3594,0,0,0,0,0,0,2.3866,2.3824,2.3811,2.38,2.3777,2.3739,2.3735,2.3718,2.3696,2.3693,2.3658,2.365,2.3635,2.3615,2.3615,2.3592,2.3578,2.3577,2.3605,2.3608,2.3611,2.3615,2.3585,0,0,0,0,0,2.3873,2.3859,2.3823,2.3816,2.3805,2.3773,2.3761,2.3742,2.3716,2.3706,2.3679,2.3654,2.3633,2.362,2.3598,2.3586,2.3576,2.3583,2.3586,2.3589,2.3588,2.3578,2.3581,2.3557,2.3557,2.3557,0,0,2.3887,2.3862,2.3855,2.3823,2.3803,2.3787,2.3765,2.3749,2.3737,2.3703,2.3684,2.3664,2.3633,2.3617,2.3609,2.3601,2.3592,2.359,2.3592,2.359,2.3579,2.3582,2.3584,2.3558,2.3558,2.3558,0,0,2.3903,2.3884,2.3876,2.3857,2.3827,2.3806,2.3804,2.3769,2.3754,2.3735,2.3709,2.3693,2.3658,2.3637,2.3622,2.363,2.361,2.3624,2.3639,2.3631,2.3632,2.3634,2.3635,2.3637,2.3624,2.3624,2.3624,0,2.3923,2.39,2.3873,2.386,2.3845,2.3816,2.3806,2.3788,2.3753,2.3743,2.3735,2.369,2.3667,2.3645,2.3648,2.3637,2.3632,2.3628,2.3635,2.3636,2.3637,2.3638,2.3639,2.3626,2.3626,2.3626,2.3625,0,2.3925,2.391,2.3907,2.3875,2.386,2.3849,2.3818,2.3806,2.3789,2.3767,2.3747,2.3719,2.3691,2.3685,2.3666,2.366,2.3656,2.3642,2.3626,2.3641,2.3641,2.3642,2.3629,2.3628,2.3627,2.3627,0,0,2.3962,2.3916,2.3915,2.39,2.3866,2.3852,2.3839,2.3813,2.3803,2.378,2.3766,2.3738,2.3724,2.3707,2.3686,2.3679,2.3686,2.3665,2.3664,2.3669,2.3675,2.3685,2.3686,2.3673,2.3673,2.3673,2.3677,0,2.3972,2.3948,2.3923,2.3907,2.3891,2.3863,2.3851,2.3828,2.3808,2.379,2.3767,2.3747,2.3732,2.3721,2.3712,2.3687,2.3686,2.3686,2.3658,2.3657,2.3665,2.3686,2.3696,2.3702,2.3677,2.3677,2.3677,0,2.398,2.396,2.3942,2.3909,2.3902,2.3892,2.3866,2.385,2.3823,2.3808,2.379,2.3768,2.375,2.3738,2.3712,2.3713,2.37,2.3685,2.3685,2.368,2.3667,2.368,2.3703,2.3703,2.3677,2.3677,2.3677,0,2.4006,2.3975,2.396,2.3948,2.391,2.3903,2.3886,2.3858,2.3844,2.3821,2.3811,2.3786,2.3772,2.3752,2.3723,2.3717,2.37,2.3686,2.3685,2.3686,2.3682,2.3682,2.3701,2.3676,2.3676,2.3676,2.3676,0,2.4019,2.4009,2.3971,2.3962,2.395,2.3921,2.3909,2.3889,2.3865,2.385,2.3824,2.3811,2.3774,2.3756,2.3733,2.3714,2.3708,2.3694,2.3688,2.3696,2.3698,2.3686,2.3684,2.3676,2.3676,2.3676,2.3676,0,2.4046,2.402,2.4002,2.3968,2.3959,2.3951,2.3921,2.391,2.3889,2.387,2.3864,2.383,2.3807,2.3777,2.3743,2.3728,2.3711,2.3703,2.3721,2.3717,2.3718,2.3718,2.3729,2.3729,2.3706,2.3706,2.3706,0,2.4055,2.4047,2.4012,2.4001,2.3986,2.3969,2.3955,2.3926,2.3912,2.388,2.3872,2.3848,2.3826,2.379,2.3761,2.3735,2.3725,2.373,2.372,2.3728,2.3723,2.3723,2.3722,2.3732,2.3733,2.3733,2.3733,0,2.4074,2.4061,2.4043,2.402,2.4005,2.3985,2.3964,2.3956,2.3922,2.3907,2.3884,2.3868,2.3835,2.381,2.3781,2.3761,2.3741,2.3737,2.3735,2.3743,2.3753,2.3746,2.3726,2.3737,2.3736,2.3736,2.3736,2.3736,2.4091,2.4082,2.4056,2.4036,2.4018,2.3999,2.3987,2.3965,2.3946,2.3917,2.3901,2.3878,2.385,2.3809,2.379,2.3771,2.3763,2.3761,2.376,2.376,2.3762,2.3758,2.3765,2.3765,2.3765,2.3765,2.3765,0,2.4106,2.4089,2.4071,2.4043,2.4027,2.4012,2.3988,2.3975,2.3956,2.3932,2.3912,2.3885,2.3861,2.383,2.3804,2.3794,2.3784,2.3787,2.3787,2.3782,2.3771,2.3774,2.3796,2.3796,2.3796,2.3796,2.3796,2.3796,2.4113,2.4097,2.4082,2.4056,2.4038,2.4017,2.4004,2.3986,2.3967,2.3938,2.3919,2.39,2.3873,2.3844,2.382,2.3812,2.3802,2.3809,2.3797,2.3786,2.3783,2.3781,2.3784,2.3807,2.3807,2.381,2.381,2.381]},{"header":{"parameterUnit":"m.s-1","parameterCategory":1,"la1":30.2991,"la2":30.254,"lo1":-89.0895,"lo2":-89.0444,"dy":0.0017,"dx":0.0017,"nx":28,"ny":28,"refTime":"2025-04-06T09:00:00:Z","depth":0,"parameterNumber":3,"parameterNumberName":"V-component_of_WINDS"},"data":[0,0,0,0,0,0,0,0,0,0,0,0,0,0,0,0,0,0,0,0,0,0,0,0,0,0,0,0,0,0,0,0,0,0,0,0,0,0,0,0,0,0,0,0,0,0,0,0,0,0,0,0,0,0,0,0,0,0,-4.9892,-4.9894,0,-5.0103,-5.0105,-5.0107,-5.0065,-5.0061,-5.0057,-5.0054,-5.0268,-5.0278,-5.0287,0,0,0,0,0,0,0,0,0,0,0,0,0,-4.9451,-4.946,-4.9892,-4.9894,-4.9897,-5.0102,-5.0105,-5.0108,-5.0066,-5.0061,-5.0056,-5.0052,-5.0265,-5.0276,-5.0288,0,0,0,0,0,0,0,0,0,0,0,0,0,-4.965,-4.9462,-4.9891,-4.9901,-4.9904,-5.0102,-5.0105,-5.0109,-5.0067,-5.0061,-5.0055,-5.005,-5.0262,-5.0275,-5.0289,-5.0491,0,0,-5.0332,-5.0338,0,0,0,0,0,0,0,0,-4.9639,-4.9667,-4.9897,-4.99,-4.9904,-5.0052,-5.0029,-5.0237,-5.0068,-5.0005,-5.0053,-5.0047,-5.0201,-5.022,-5.0272,-5.0501,-5.051,-5.0333,-5.0341,-5.0347,-5.0351,0,0,0,0,0,0,0,-4.9625,-4.9657,-4.9975,-4.99,-4.9905,-4.9894,-4.9916,-5.0068,-5.0133,-5.001,-5.0007,-5.0033,-5.0202,-5.0258,-5.0276,-5.0513,-5.0333,-5.0345,-5.0354,-5.0359,-5.0918,-5.0925,0,0,0,0,0,0,-4.9608,-4.9646,-4.9968,-4.9981,-4.9755,-4.9906,-4.9931,-5.001,-5.0131,-5.0144,-5.0037,-5.003,-5.0237,-5.026,-5.0284,-5.0528,-5.0347,-5.036,-5.0369,-5.0912,-5.092,-5.0927,0,0,0,0,0,0,-4.9599,-4.9638,-4.996,-4.9813,-4.9853,-4.992,-5.0009,-5.0017,-5.0074,-5.0152,-5.0163,-5.0084,-5.0234,-5.0264,-5.044,-5.0535,-5.0367,-5.0379,-5.0904,-5.0914,-5.0923,-5.1019,0,0,0,0,0,0,-4.9587,-4.9635,-4.9712,-4.9815,-4.9861,-5.0113,-5.0015,-5.0026,-5.0098,-5.009,-5.0198,-5.021,-5.0231,-5.0419,-5.0454,-5.0551,-5.039,-5.0896,-5.0909,-5.092,-5.1008,-5.1031,-5.105,0,0,0,0,0,-4.9571,-4.9731,-4.9717,-4.9756,-4.996,-5.0119,-5.0145,-5.0167,-5.0106,-5.0185,-5.0234,-5.0207,-5.0519,-5.0438,-5.0476,-5.0579,-5.089,-5.0905,-5.0919,-5.0998,-5.1026,-5.105,0,0,0,0,0,0,-4.9637,-4.9744,-4.973,-4.9928,-5.0015,-5.0111,-5.0211,-5.0196,-5.0302,-5.029,-5.0312,-5.0336,-5.0515,-5.0564,-5.0472,-5.0781,-5.0696,-5.0719,-5.0742,-5.077,-5.0791,-5.0776,-5.0402,0,0,0,0,0,-4.9675,-4.9795,-4.9882,-5.0048,-5.0092,-5.0144,-5.0214,-5.0223,-5.0314,-5.035,-5.0413,-5.0502,-5.062,-5.0697,-5.081,-5.1014,-5.1037,-5.1104,-5.1125,-5.1142,-5.1162,-5.1274,-5.1305,-5.0975,-5.0975,-5.0974,0,0,-4.9754,-4.9827,-4.9902,-5.0063,-5.0131,-5.0255,-5.0176,-5.031,-5.0402,-5.0371,-5.0541,-5.059,-5.069,-5.0881,-5.0968,-5.0927,-5.1258,-5.1161,-5.1174,-5.1185,-5.1292,-5.1323,-5.1351,-5.0985,-5.0983,-5.0981,0,0,-4.9961,-5.0029,-5.0174,-5.0244,-5.0349,-5.0382,-5.0417,-5.0517,-5.0548,-5.0719,-5.0698,-5.0807,-5.101,-5.1083,-5.1146,-5.138,-5.1359,-5.1416,-5.1529,-5.1637,-5.1663,-5.1686,-5.177,-5.18,-5.1435,-5.1436,-5.1436,0,-5.0046,-5.0232,-5.0251,-5.0388,-5.0459,-5.0437,-5.0584,-5.0651,-5.0787,-5.0837,-5.0789,-5.1044,-5.111,-5.1317,-5.1374,-5.1426,-5.1466,-5.1404,-5.1658,-5.1681,-5.1703,-5.1783,-5.1815,-5.1442,-5.1441,-5.1441,-5.144,0,-5.0332,-5.0461,-5.0566,-5.0698,-5.0781,-5.0923,-5.0963,-5.1044,-5.1046,-5.1084,-5.1258,-5.1336,-5.1465,-5.1514,-5.1517,-5.1722,-5.1694,-5.1652,-5.1567,-5.174,-5.1816,-5.1847,-5.1451,-5.1449,-5.1447,-5.1445,0,0,-5.0588,-5.0728,-5.0767,-5.0826,-5.0939,-5.1039,-5.1179,-5.1305,-5.1375,-5.1469,-5.1587,-5.1759,-5.172,-5.1792,-5.1803,-5.1898,-5.2078,-5.1844,-5.1847,-5.1886,-5.231,-5.2341,-5.2377,-5.2064,-5.207,-5.2075,-5.2302,0,-5.0806,-5.1054,-5.1075,-5.1297,-5.1417,-5.1396,-5.1518,-5.16,-5.164,-5.1746,-5.1789,-5.1911,-5.1851,-5.1894,-5.1987,-5.2037,-5.2164,-5.202,-5.2175,-5.218,-5.2151,-5.2416,-5.245,-5.2661,-5.2331,-5.2336,-5.234,0,-5.1095,-5.1198,-5.1432,-5.1528,-5.1579,-5.1688,-5.1805,-5.1907,-5.2,-5.2021,-5.2102,-5.2099,-5.2242,-5.2151,-5.2349,-5.2251,-5.2315,-5.2349,-5.2358,-5.2374,-5.2271,-5.244,-5.2728,-5.276,-5.2387,-5.2383,-5.238,0,-5.1259,-5.1456,-5.1622,-5.1673,-5.1789,-5.1866,-5.1918,-5.2005,-5.2079,-5.2181,-5.2229,-5.2346,-5.241,-5.25,-5.2529,-5.246,-5.2727,-5.2638,-5.2749,-5.2748,-5.2807,-5.2803,-5.311,-5.2847,-5.2846,-5.2845,-5.2845,0,-5.1502,-5.1646,-5.1697,-5.18,-5.196,-5.1982,-5.2141,-5.2188,-5.2266,-5.2376,-5.2365,-5.2469,-5.25,-5.261,-5.2633,-5.2794,-5.2822,-5.2844,-5.2849,-5.2846,-5.2843,-5.2889,-5.2876,-5.2854,-5.2852,-5.285,-5.2849,0,-5.1713,-5.1753,-5.1933,-5.2027,-5.2054,-5.2169,-5.225,-5.2348,-5.2384,-5.2525,-5.2559,-5.2617,-5.2745,-5.2782,-5.2936,-5.2952,-5.3141,-5.3131,-5.311,-5.311,-5.322,-5.3209,-5.3568,-5.3616,-5.3319,-5.3322,-5.3325,0,-5.1866,-5.1977,-5.2083,-5.2156,-5.2211,-5.233,-5.2405,-5.243,-5.2509,-5.2623,-5.2708,-5.2834,-5.2937,-5.3142,-5.3198,-5.3316,-5.331,-5.3427,-5.3327,-5.3321,-5.3313,-5.3306,-5.3318,-5.3446,-5.345,-5.3452,-5.3454,0,-5.2133,-5.2147,-5.2257,-5.2373,-5.2464,-5.2556,-5.2646,-5.2706,-5.2744,-5.2833,-5.2964,-5.3044,-5.3201,-5.3327,-5.3446,-5.3499,-5.3484,-5.3485,-5.3517,-5.3516,-5.3499,-5.3511,-5.3162,-5.3477,-5.3475,-5.3473,-5.3472,-5.3471,-5.2321,-5.2418,-5.2508,-5.263,-5.27,-5.2784,-5.288,-5.2929,-5.3039,-5.3169,-5.3176,-5.3319,-5.3408,-5.3566,-5.3625,-5.3736,-5.3702,-5.3748,-5.376,-5.3772,-5.3781,-5.348,-5.3758,-5.3757,-5.3757,-5.3756,-5.3756,0,-5.2588,-5.2645,-5.2757,-5.2882,-5.2978,-5.2954,-5.3051,-5.3133,-5.3259,-5.3343,-5.3444,-5.3595,-5.3716,-5.3781,-5.3902,-5.3979,-5.3975,-5.401,-5.4005,-5.4018,-5.3805,-5.3765,-5.4011,-5.4011,-5.4011,-5.4011,-5.4011,-5.4011,-5.2739,-5.2903,-5.2927,-5.3125,-5.318,-5.332,-5.3377,-5.3454,-5.3521,-5.369,-5.3791,-5.3832,-5.3909,-5.4035,-5.4146,-5.4162,-5.4207,-5.4247,-5.4259,-5.4059,-5.4033,-5.4008,-5.3971,-5.4256,-5.4257,-5.4463,-5.4465,-5.4466]}]]